• Join FlightAware (Why Join?)
  • Login
  • US Flag 
05:45AM EDT


 

Airport Tracker/Info


-or-


 

Live Flight TrackerFlight Track Log ✈ SWA3247 ✈ 26-Jun-2013 ✈ KLAS - KALB

Flight Track Log - Related Links

Times and Time Zones

All times are in EDT time to prevent confusion due to time zone crossing. See the SWA3247 flight status page for this flight to view local times or setup timezone preferences in your user account.

Time Position Orientation Groundspeed Altitude Reporting Facility
EDT Latitude Longitude Course Direction KTS MPH feet Rate Location/Type
08:37PM 36.0764 -115.1894 269° West 192 221 3,400  Level Los Angeles Center
08:37PM 36.0758 -115.2267 269° West 200 230 4,100 1,680 Climbing Los Angeles Center
08:38PM 36.0869 -115.2756 286° West 233 268 5,500 2,220 Climbing Los Angeles Center
08:39PM 36.1525 -115.2858 353° North 258 297 8,000 2,280 Climbing Los Angeles Center
08:40PM 36.1894 -115.2072 60° Northeast 267 307 10,300 1,680 Climbing Los Angeles Center
08:41PM 36.1981 -115.0975 84° East 309 356 11,500 1,740 Climbing Los Angeles Center
08:42PM 36.1981 -114.9406 90° East 369 425 14,000 2,340 Climbing Los Angeles Center
08:43PM 36.2000 -114.8053 89° East 389 448 16,400 2,220 Climbing Los Angeles Center
08:44PM 36.1986 -114.6689 91° East 395 455 18,700 1,920 Climbing Los Angeles Center
08:45PM 36.1958 -114.5258 91° East 412 474 20,400 1,740 Climbing Los Angeles Center
08:46PM 36.1942 -114.3792 91° East 425 489 22,400 1,800 Climbing Los Angeles Center
08:47PM 36.1972 -114.2303 88° East 431 496 24,200 1,740 Climbing Los Angeles Center
08:48PM 36.2553 -114.0592 67° East 449 517 26,000 1,500 Climbing Los Angeles Center
08:49PM 36.3031 -113.9114 68° East 459 528 27,400 1,320 Climbing Los Angeles Center
08:50PM 36.3511 -113.7617 68° East 466 536 28,800 1,500 Climbing Los Angeles Center
08:51PM 36.4014 -113.6106 68° East 473 544 30,600 1,740 Climbing Los Angeles Center
08:52PM 36.4497 -113.4625 68° East 466 536 32,500 1,140 Climbing Los Angeles Center
08:53PM 36.5019 -113.3017 68° East 459 528 33,000 240 Climbing Los Angeles Center
08:54PM 36.5486 -113.1567 68° East 455 524 33,000  Level Los Angeles Center
08:55PM 36.5958 -113.0106 68° East 457 526 33,000  Level Los Angeles Center
08:56PM 36.6422 -112.8644 68° East 456 525 33,100 840 Climbing Los Angeles Center
08:57PM 36.6972 -112.6900 68° East 455 524 34,800 1,260 Climbing Los Angeles Center
08:58PM 36.7436 -112.5450 68° East 453 521 35,800 900 Climbing Los Angeles Center
08:59PM 36.7889 -112.3975 69° East 457 526 36,700 540 Climbing Los Angeles Center
09:00PM 36.8342 -112.2528 69° East 452 520 37,000 120 Climbing Los Angeles Center
09:01PM 36.8811 -112.1064 68° East 455 524 37,000  Level Los Angeles Center
09:03PM 36.9339 -111.9319 69° East 452 520 37,000  Level Los Angeles Center
09:04PM 36.9803 -111.7850 68° East 454 522 37,000  Level Los Angeles Center
09:05PM 37.0258 -111.6378 69° East 455 524 37,000  Level Los Angeles Center
09:05PM 37.0531 -111.5500 69° East 454 522 37,000  Level Denver Center
09:06PM 37.1011 -111.4069 67° East 451 519 37,000  Level Denver Center
09:07PM 37.1497 -111.2622 67° East 453 521 37,000  Level Denver Center
09:08PM 37.1989 -111.1158 67° East 456 525 37,000  Level Denver Center
09:09PM 37.2581 -110.9417 67° East 455 524 37,000  Level Denver Center
09:10PM 37.3067 -110.7950 67° East 456 525 37,000  Level Denver Center
09:11PM 37.3550 -110.6497 67° East 453 521 37,000  Level Denver Center
09:12PM 37.4025 -110.5031 68° East 453 521 37,000  Level Denver Center
09:13PM 37.4508 -110.3578 67° East 453 521 37,000  Level Denver Center
09:15PM 37.5058 -110.1875 68° East 453 521 37,000  Level Denver Center
09:16PM 37.5525 -110.0444 68° East 459 528 37,000  Level Denver Center
09:17PM 37.6061 -109.8775 68° East 460 529 37,000  Level Denver Center
09:18PM 37.6517 -109.7364 68° East 455 524 37,000  Level Denver Center
09:19PM 37.6969 -109.5925 68° East 458 527 37,000  Level Denver Center
09:20PM 37.7500 -109.4261 68° East 455 524 37,000  Level Denver Center
09:21PM 37.7953 -109.2842 68° East 454 522 37,000  Level Denver Center
09:22PM 37.8467 -109.1194 68° East 451 519 37,000  Level Denver Center
09:23PM 37.9058 -108.9300 68° East 452 520 37,000  Level Denver Center
09:24PM 37.9492 -108.7889 69° East 449 517 37,000  Level Denver Center
09:25PM 37.9933 -108.6503 68° East 446 513 37,000  Level Denver Center
09:26PM 38.0433 -108.4847 69° East 447 514 37,000  Level Denver Center
09:27PM 38.0883 -108.3367 69° East 454 522 37,000  Level Denver Center
09:28PM 38.1375 -108.1725 69° East 447 514 37,000  Level Denver Center
09:29PM 38.1803 -108.0292 69° East 451 519 37,000  Level Denver Center
09:30PM 38.2319 -107.8619 68° East 455 524 37,000  Level Denver Center
09:31PM 38.2736 -107.7200 69° East 450 518 37,000  Level Denver Center
09:32PM 38.3236 -107.5517 69° East 454 522 37,000  Level Denver Center
09:34PM 38.3744 -107.3819 69° East 458 527 37,000  Level Denver Center
09:35PM 38.4239 -107.2111 70° East 460 529 37,000  Level Denver Center
09:36PM 38.4694 -107.0558 69° East 454 522 37,000  Level Denver Center
09:37PM 38.5131 -106.9033 70° East 457 526 37,000  Level Denver Center
09:38PM 38.5572 -106.7514 70° East 457 526 37,000  Level Denver Center
09:39PM 38.6089 -106.5692 70° East 457 526 37,000  Level Denver Center
09:40PM 38.6525 -106.4158 70° East 458 527 37,000  Level Denver Center
09:41PM 38.7125 -106.2022 70° East 457 526 37,000  Level Denver Center
09:42PM 38.7661 -106.0114 70° East 457 526 37,000  Level Denver Center
09:43PM 38.8089 -105.8578 70° East 460 529 37,000  Level Denver Center
09:44PM 38.8517 -105.7053 70° East 458 527 37,000  Level Denver Center
09:45PM 38.8928 -105.5531 71° East 454 522 37,000  Level Denver Center
09:47PM 38.9339 -105.4011 71° East 454 522 37,000  Level Denver Center
09:48PM 38.9753 -105.2514 70° East 449 517 37,000  Level Denver Center
09:49PM 39.0236 -105.0706 71° East 449 517 37,000  Level Denver Center
09:50PM 39.0644 -104.9200 71° East 448 516 37,000  Level Denver Center
09:51PM 39.1053 -104.7697 71° East 449 517 37,000  Level Denver Center
09:52PM 39.1456 -104.6181 71° East 452 520 37,000  Level Denver Center
09:53PM 39.1853 -104.4656 71° East 453 521 37,000  Level Denver Center
09:54PM 39.2339 -104.2825 71° East 455 524 37,000  Level Denver Center
09:55PM 39.2736 -104.1286 72° East 457 526 37,000  Level Denver Center
09:56PM 39.3133 -103.9747 72° East 456 525 37,000  Level Denver Center
09:57PM 39.3528 -103.8217 72° East 453 521 37,000  Level Denver Center
09:58PM 39.3919 -103.6669 72° East 455 524 37,000  Level Denver Center
09:59PM 39.4314 -103.5142 71° East 452 520 37,000  Level Denver Center
10:00PM 39.4772 -103.3314 72° East 446 513 37,000  Level Denver Center
10:01PM 39.5156 -103.1772 72° East 451 519 37,000  Level Denver Center
10:02PM 39.5461 -103.0558 72° East 447 514 37,000  Level Denver Center
10:03PM 39.5897 -102.8742 73° East 442 509 37,000  Level Denver Center
10:04PM 39.6317 -102.7064 72° East 441 507 37,000  Level Denver Center
10:05PM 39.6669 -102.5611 72° East 441 507 37,000  Level Denver Center
10:06PM 39.7089 -102.3911 72° East 443 510 37,000  Level Denver Center
10:07PM 39.7442 -102.2458 72° East 442 509 37,000  Level Denver Center
10:08PM 39.7794 -102.1003 72° East 442 509 37,000  Level Denver Center
10:09PM 39.8194 -101.9281 73° East 445 512 37,000  Level Denver Center
10:10PM 39.8536 -101.7814 73° East 445 512 37,000  Level Denver Center
10:11PM 39.8947 -101.6106 73° East 444 511 37,000  Level Denver Center
10:12PM 39.9283 -101.4631 73° East 445 512 37,000  Level Denver Center
10:13PM 39.9678 -101.2908 73° East 446 513 37,000  Level Denver Center
10:14PM 40.0017 -101.1433 73° East 445 512 37,000  Level Denver Center
10:15PM 40.0414 -100.9692 73° East 449 517 37,000  Level Denver Center
10:16PM 40.0689 -100.8442 74° East 450 518 37,000  Level Denver Center
10:17PM 40.1136 -100.6447 74° East 450 518 37,000  Level Denver Center
10:18PM 40.1472 -100.4944 74° East 452 520 37,000  Level Denver Center
10:20PM 40.1856 -100.3194 74° East 451 519 37,000  Level Denver Center
10:21PM 40.2186 -100.1686 74° East 452 520 37,000  Level Denver Center
10:22PM 40.2569 -99.9947 74° East 449 517 37,000  Level Denver Center
10:23PM 40.2886 -99.8517 74° East 452 520 37,000  Level Denver Center
10:24PM 40.3217 -99.6936 75° East 451 519 37,000  Level Denver Center
10:25PM 40.3628 -99.4997 74° East 461 531 37,000  Level Denver Center
10:26PM 40.3908 -99.3739 74° East 458 527 37,000  Level Minneapolis Center
10:27PM 40.4314 -99.1792 75° East 463 533 37,000  Level Minneapolis Center
10:28PM 40.4642 -99.0167 75° East 463 533 37,000  Level Minneapolis Center
10:29PM 40.4992 -98.8539 74° East 465 535 37,000  Level Minneapolis Center
10:30PM 40.5311 -98.6917 75° East 463 533 37,000  Level Minneapolis Center
10:31PM 40.5644 -98.5289 75° East 464 534 37,000  Level Minneapolis Center
10:32PM 40.5967 -98.3658 75° East 464 534 37,000 480 Level Minneapolis Center
10:33PM 40.6356 -98.1728 75° East 460 529 38,100 960 Climbing Minneapolis Center
10:34PM 40.6669 -98.0114 76° East 459 528 39,000 420 Climbing Minneapolis Center
10:35PM 40.6983 -97.8492 76° East 459 528 39,000  Level Minneapolis Center
10:36PM 40.7300 -97.6864 76° East 460 529 39,000  Level Minneapolis Center
10:37PM 40.7656 -97.5233 74° East 463 533 39,000  Level Minneapolis Center
10:38PM 40.8236 -97.3578 65° Northeast 456 525 39,000  Level Minneapolis Center
10:39PM 40.8756 -97.2067 66° East 453 521 39,000  Level Minneapolis Center
10:40PM 40.9275 -97.0556 65° Northeast 453 521 39,000  Level Minneapolis Center
10:41PM 40.9889 -96.8725 66° East 453 521 39,000  Level Minneapolis Center
10:42PM 41.0344 -96.7192 68° East 452 520 39,000  Level Minneapolis Center
10:43PM 41.0617 -96.5536 78° East 458 527 39,000  Level Minneapolis Center
10:44PM 41.0964 -96.3558 77° East 460 529 39,000  Level Minneapolis Center
10:45PM 41.1236 -96.2028 77° East 465 535 39,000  Level Minneapolis Center
10:46PM 41.1528 -96.0375 77° East 465 535 39,000  Level Minneapolis Center
10:47PM 41.1867 -95.8389 77° East 459 528 39,000  Level Minneapolis Center
10:48PM 41.2150 -95.6717 77° East 465 535 39,000  Level Minneapolis Center
10:49PM 41.2414 -95.5022 78° East 460 529 39,000  Level Minneapolis Center
10:51PM 41.2703 -95.3356 77° East 464 534 39,000  Level Minneapolis Center
10:52PM 41.2986 -95.1694 77° East 463 533 39,000  Level Minneapolis Center
10:53PM 41.3247 -95.0039 78° East 461 531 39,000  Level Minneapolis Center
10:54PM 41.3514 -94.8367 78° East 461 531 39,000  Level Minneapolis Center
10:55PM 41.3778 -94.6725 78° East 458 527 39,000  Level Minneapolis Center
10:56PM 41.4039 -94.5044 78° East 461 531 39,000  Level Minneapolis Center
10:57PM 41.4381 -94.3031 77° East 464 534 39,000  Level Minneapolis Center
10:58PM 41.4583 -94.1644 79° East 465 535 39,000  Level Minneapolis Center
10:59PM 41.4892 -93.9631 78° East 465 535 39,000  Level Minneapolis Center
11:00PM 41.5147 -93.7950 78° East 466 536 39,000  Level Minneapolis Center
11:01PM 41.5406 -93.6258 78° East 467 537 39,000  Level Minneapolis Center
11:02PM 41.5669 -93.4575 78° East 467 537 39,000  Level Minneapolis Center
11:03PM 41.5908 -93.2897 79° East 464 534 39,000  Level Minneapolis Center
11:04PM 41.6158 -93.1214 79° East 464 534 39,000  Level Minneapolis Center
11:05PM 41.6503 -92.8881 79° East 462 532 39,000  Level Minneapolis Center
11:06PM 41.6739 -92.7189 79° East 465 535 39,000  Level Minneapolis Center
11:07PM 41.6967 -92.5639 79° East 465 535 39,000  Level Minneapolis Center
11:08PM 41.7094 -92.4586 81° East 468 539 39,000  Level Chicago Center
11:09PM 41.7336 -92.2889 79° East 470 541 39,000  Level Chicago Center
11:10PM 41.7564 -92.1175 80° East 473 544 39,000  Level Chicago Center
11:11PM 41.7794 -91.9458 80° East 474 545 39,000  Level Chicago Center
11:12PM 41.8072 -91.7408 80° East 473 544 39,000  Level Chicago Center
11:13PM 41.8294 -91.5689 80° East 475 547 39,000  Level Chicago Center
11:14PM 41.8528 -91.3994 79° East 472 543 39,000  Level Chicago Center
11:15PM 41.8742 -91.2297 80° East 467 537 39,000  Level Chicago Center
11:16PM 41.8958 -91.0589 80° East 470 541 39,000  Level Chicago Center
11:17PM 41.9208 -90.8575 80° East 462 532 39,000  Level Chicago Center
11:18PM 41.9417 -90.6881 81° East 465 535 39,000  Level Chicago Center
11:19PM 41.9622 -90.5214 81° East 459 528 39,000  Level Chicago Center
11:20PM 41.9831 -90.3511 81° East 466 536 39,000  Level Chicago Center
11:21PM 42.0019 -90.1847 81° East 459 528 39,000  Level Chicago Center
11:22PM 42.0269 -89.9808 81° East 465 535 39,000  Level Chicago Center
11:23PM 42.0439 -89.8297 81° East 457 526 39,000  Level Chicago Center
11:24PM 42.0636 -89.6603 81° East 460 529 39,000  Level Chicago Center
11:25PM 42.0833 -89.4711 82° East 466 536 39,000  Level Chicago Center
11:26PM 42.1019 -89.3014 82° East 463 533 39,000  Level Chicago Center
11:27PM 42.1217 -89.1308 81° East 463 533 39,000  Level Chicago Center
11:28PM 42.1431 -88.9339 82° East 459 528 39,000  Level Chicago Center
11:29PM 42.1603 -88.7747 82° East 461 531 39,000  Level Chicago Center
11:30PM 42.1783 -88.6047 82° East 460 529 39,000  Level Chicago Center
11:31PM 42.1950 -88.4344 82° East 460 529 39,000  Level Chicago Center
11:32PM 42.2122 -88.2631 82° East 461 531 39,000  Level Chicago Center
11:33PM 42.2333 -88.0553 82° East 466 536 39,000  Level Chicago Center
11:34PM 42.2508 -87.8797 82° East 471 542 39,000  Level Chicago Center
11:35PM 42.2678 -87.7056 82° East 470 541 39,000  Level Chicago Center
11:36PM 42.2836 -87.5281 83° East 476 548 39,000  Level Chicago Center
11:37PM 42.3003 -87.3522 83° East 475 547 39,000  Level Chicago Center
11:38PM 42.3172 -87.1764 83° East 474 545 39,000  Level Chicago Center
11:39PM 42.3319 -87.0031 83° East 469 540 39,000  Level Chicago Center
11:41PM 42.3508 -86.7936 83° East 469 540 39,000  Level Chicago Center
11:42PM 42.3633 -86.6458 83° East 471 542 39,000  Level Chicago Center
11:43PM 42.3819 -86.4353 83° East 472 543 39,000  Level Chicago Center
11:44PM 42.3964 -86.2619 84° East 469 540 39,000  Level Chicago Center
11:45PM 42.4108 -86.0883 84° East 469 540 39,000  Level Chicago Center
11:46PM 42.4244 -85.9136 84° East 471 542 39,000  Level Chicago Center
11:47PM 42.4381 -85.7378 84° East 475 547 39,000  Level Chicago Center
11:48PM 42.4528 -85.5619 83° East 475 547 39,000  Level Chicago Center
11:49PM 42.4658 -85.3839 84° East 478 550 39,000  Level Chicago Center
11:50PM 42.4822 -85.1722 84° East 474 545 39,000  Level Chicago Center
11:51PM 42.4947 -84.9986 84° East 469 540 39,000  Level Chicago Center
11:52PM 42.5075 -84.8242 84° East 468 539 39,000  Level Chicago Center
11:53PM 42.5194 -84.6508 85° East 465 535 39,000  Level Chicago Center
11:54PM 42.5317 -84.4764 85° East 468 539 39,000  Level Chicago Center
11:54PM 42.5364 -84.3425 87° East 459 528 39,000  Level Cleveland Center
11:55PM 42.5481 -84.1683 85° East 464 534 39,000  Level Cleveland Center
11:56PM 42.5597 -83.9914 85° East 464 534 39,000  Level Cleveland Center
11:57PM 42.5733 -83.8144 84° East 464 534 39,000  Level Cleveland Center
11:58PM 42.5844 -83.6344 85° East 464 534 39,000  Level Cleveland Center
11:59PM 42.5953 -83.4572 85° East 469 540 39,000  Level Cleveland Center
12:00AM 42.6058 -83.2744 85° East 474 545 39,000  Level Cleveland Center
12:01AM 42.6142 -83.0969 86° East 474 545 39,000  Level Cleveland Center
12:02AM 42.6242 -82.9167 86° East 474 545 39,000  Level Cleveland Center
12:03AM 42.6317 -82.7364 87° East 474 545 39,000  Level Cleveland Center
12:04AM 42.6414 -82.5561 86° East 474 545 39,000  Level Cleveland Center
12:05AM 42.6525 -82.3786 85° East 474 545 39,000  Level Cleveland Center
12:06AM 42.6594 -82.1981 87° East 474 545 39,000  Level Cleveland Center
12:07AM 42.6681 -82.0175 86° East 480 552 39,000  Level Cleveland Center
12:08AM 42.6742 -81.8397 87° East 475 547 39,000  Level Cleveland Center
12:09AM 42.6822 -81.6761 86° East 475 547 39,000  Level Cleveland Center
12:10AM 42.6900 -81.4842 87° East 475 547 39,000  Level Cleveland Center
12:11AM 42.6975 -81.3008 87° East 475 547 39,000  Level Cleveland Center
12:12AM 42.7047 -81.1228 87° East 475 547 39,000  Level Cleveland Center
12:13AM 42.7119 -80.9447 87° East 475 547 39,000  Level Cleveland Center
12:14AM 42.7206 -80.7669 86° East 475 547 39,000  Level Cleveland Center
12:15AM 42.7250 -80.5889 88° East 475 547 39,000  Level Cleveland Center
12:16AM 42.7289 -80.4022 88° East 475 547 39,000  Level Cleveland Center
12:17AM 42.7347 -80.2242 87° East 475 547 39,000  Level Cleveland Center
12:18AM 42.7425 -80.0658 86° East 475 547 39,000  Level Cleveland Center
12:19AM 42.7497 -79.8678 87° East 475 547 39,000  Level Cleveland Center
12:20AM 42.7547 -79.6925 88° East 475 547 39,000  Level Cleveland Center
12:21AM 42.7575 -79.5114 89° East 475 547 39,000  Level Cleveland Center
12:22AM 42.7578 -79.3361 90° East 470 541 39,000 -180 Level Cleveland Center
12:23AM 42.7642 -79.1606 87° East 470 541 38,700 -720 Descending Cleveland Center
12:24AM 42.7681 -78.9881 88° East 465 535 37,600 -1,020 Descending Cleveland Center
12:25AM 42.7719 -78.8183 88° East 454 522 36,700 -960 Descending Cleveland Center
12:26AM 42.7733 -78.6486 89° East 454 522 35,700 -960 Descending Cleveland Center
12:27AM 42.7764 -78.4731 89° East 454 522 34,800 -960 Descending Cleveland Center
12:28AM 42.7775 -78.3006 89° East 459 528 33,800 -900 Descending Cleveland Center
12:29AM 42.7800 -78.1222 89° East 459 528 33,000 -420 Descending Cleveland Center
12:30AM 42.7825 -77.9467 89° East 459 528 33,000  Level Cleveland Center
12:31AM 42.7844 -77.7739 89° East 459 528 33,000  Level Cleveland Center
12:32AM 42.7864 -77.5983 89° East 459 528 33,000  Level Cleveland Center
12:33AM 42.7858 -77.4231 90° East 459 528 33,000 -300 Level Cleveland Center
12:35AM 42.7856 -77.1742 90° East 454 522 32,300 -660 Descending Boston Center
12:36AM 42.7861 -77.0069 90° East 449 517 31,400 -1,020 Descending Boston Center
12:37AM 42.7867 -76.8344 90° East 449 517 30,300 -1,080 Descending Boston Center
12:38AM 42.7867 -76.6647 90° East 449 517 29,300 -660 Descending Boston Center
12:39AM 42.7867 -76.4975 90° East 444 511 29,000 -180 Descending Boston Center
12:40AM 42.7858 -76.3361 90° East 439 505 29,000  Level Boston Center
12:41AM 42.7817 -76.1519 92° East 439 505 29,000  Level Boston Center
12:42AM 42.7847 -75.9908 88° East 439 505 29,000  Level Boston Center
12:43AM 42.7836 -75.8239 90° East 439 505 29,000 -60 Level Boston Center
12:44AM 42.7800 -75.6567 92° East 439 505 28,900 -1,080 Descending Boston Center
12:45AM 42.7797 -75.5236 90° East 439 505 26,900 -2,220 Descending Boston Center
12:46AM 42.7764 -75.3283 91° East 439 505 24,500 -2,160 Descending Boston Center
12:47AM 42.7761 -75.1728 90° East 439 505 22,600 -1,860 Descending Boston Center
12:48AM 42.7711 -75.0253 93° East 413 475 20,800 -1,800 Descending Boston Center
12:49AM 42.7703 -74.8811 90° East 394 453 19,000 -1,800 Descending Boston Center
12:50AM 42.7664 -74.7650 93° East 366 421 17,500 -1,800 Descending Boston Center
12:51AM 42.7633 -74.6064 91° East 361 415 15,400 -2,700 Descending Boston Center
12:52AM 42.7697 -74.4822 86° East 376 433 12,100 -2,340 Descending Boston Center
12:53AM 42.7847 -74.3356 82° East 361 415 10,800 -1,560 Descending Boston Center
12:54AM 42.7906 -74.2311 86° East 323 372 8,800 -2,700 Descending Boston Center
12:55AM 42.8028 -74.1153 82° East 293 337 5,400 -2,760 Descending Boston Center
12:56AM 42.8125 -74.0222 82° East 274 315 3,500 -1,320 Descending Boston Center
12:57AM 42.8178 -73.9375 85° East 228 262 3,000 -840 Descending Boston Center
12:58AM 42.8083 -73.8550 99° East 209 241 2,000 -960 Descending Boston Center
12:59AM 42.7883 -73.8008 117° Southeast 154 177 1,100 -540 Descending Boston Center
01:00AM 42.7806 -73.7414 100° East 195 224 900 -180 Descending Boston Center